Weather History for Frenchville, ME

Change the Weather History Date:

Wednesday, January 23, 2013

  Actual Average Record
Temperature  
Mean Temperature -14 °F 8 °F  
Max Temperature -7 °F 17 °F 37 °F (1997)
Min Temperature -21 °F 0 °F -21 °F (2013)
Degree Days  
Heating Degree Days 79    
Month to date heating degree days 1263  
Since 1 July heating degree days 4674  
Cooling Degree Days 0    
Month to date cooling degree days 0  
Year to date cooling degree days 0  
Moisture  
Dew Point -22 °F    
Average Humidity 66    
Maximum Humidity 76    
Minimum Humidity 50    
Precipitation  
Precipitation 0.00 in 0.02 in 0.27 in (1997)
Month to date precipitation 0.21 1.49  
Year to date precipitation 0.21 1.49  
Sea Level Pressure  
Sea Level Pressure 29.77 in    
Wind  
Wind Speed 12 mph (West)    
Max Wind Speed 26 mph    
Max Gust Speed 32 mph    
Visibility 9 miles    
Events      
T = Trace of Precipitation, MM = Missing Value Source: NWS Daily Summary

Daily Weather History Graph

Daily Weather History Graph

Search for Another Location

Airport:

Trip Planner

Search our weather history database for the weather conditions in past years. The results will help you decide how hot, cold, wet, or windy it might be!

Date:

Astronomy

Jan. 23, 2013 Rise Set
Actual Time 7:08 AM EST 4:21 PM EST
Civil Twilight 6:35 AM EST 4:55 PM EST
Nautical Twilight 5:57 AM EST 5:33 PM EST
Astronomical Twilight 5:21 AM EST 6:09 PM EST
Moon 1:26 PM EST (1/23) 4:20 AM EST (1/23)
Length of Visible Light 10h 20m
Length of Day
9h 13m
Waxing Gibbous, 89% of the Moon is Illuminated
Jan 23
Waxing Gibbous
Jan 26
Full
Feb 3
Last Quarter
Feb 10
New
Feb 17
First Quarter

Hourly Weather History & Observations

Time (EST) Temp. Windchill Dew Point Humidity Pressure Visibility Wind Dir Wind Speed Gust Speed Precip Events Conditions
12:53 AM -14.1 °F -29.9 °F -20.9 °F 71% 29.83 in 10.0 mi WNW 6.9 mph - N/A   Scattered Clouds
1:53 AM -16.6 °F -29.3 °F -22.0 °F 76% 29.75 in 10.0 mi NW 4.6 mph - N/A   Clear
2:53 AM -16.1 °F -35.0 °F -22.0 °F 74% 29.84 in 10.0 mi WNW 9.2 mph - N/A   Clear
3:53 AM -17.0 °F -34.8 °F -23.1 °F 74% 29.83 in 10.0 mi NW 8.1 mph - N/A   Clear
4:53 AM -18.9 °F -35.8 °F -25.1 °F 74% 29.83 in 10.0 mi NW 6.9 mph - N/A   Clear
5:53 AM -18.9 °F -34.0 °F -25.1 °F 74% 29.84 in 10.0 mi West 5.8 mph - N/A   Overcast
6:36 AM -20.2 °F -37.3 °F -25.6 °F 76% 29.74 in 7.0 mi West 6.9 mph - N/A   Overcast
6:53 AM -20.2 °F -42.4 °F -25.6 °F 76% 29.74 in 10.0 mi West 11.5 mph - N/A   Overcast
7:36 AM -20.2 °F -37.3 °F -25.6 °F 76% 29.75 in 7.0 mi West 6.9 mph - N/A   Mostly Cloudy
7:48 AM -20.2 °F -38.8 °F -25.6 °F 76% 29.75 in 9.0 mi West 8.1 mph - N/A   Scattered Clouds
7:53 AM -20.0 °F -37.1 °F -26.0 °F 74% 29.85 in 9.0 mi West 6.9 mph - N/A   Scattered Clouds
8:04 AM -20.2 °F -40.1 °F -25.6 °F 76% 29.75 in 8.0 mi West 9.2 mph - N/A   Mostly Cloudy
8:18 AM -18.4 °F -41.2 °F -25.6 °F 70% 29.75 in 10.0 mi WNW 12.7 mph - N/A   Scattered Clouds
8:53 AM -17.0 °F -39.3 °F -25.1 °F 67% 29.85 in 10.0 mi West 12.7 mph - N/A   Clear
9:53 AM -14.1 °F -38.2 °F -23.1 °F 64% 29.84 in 10.0 mi West 16.1 mph 23.0 mph N/A   Clear
10:24 AM -13.0 °F -38.2 °F -23.8 °F 59% 29.75 in 3.0 mi West 18.4 mph 32.2 mph N/A   Haze
10:35 AM -11.2 °F -35.8 °F -23.8 °F 54% 29.75 in 8.0 mi West 18.4 mph 28.8 mph N/A   Scattered Clouds
10:53 AM -11.9 °F -38.6 °F -23.1 °F 58% 29.83 in 9.0 mi WNW 21.9 mph 28.8 mph N/A   Partly Cloudy
11:07 AM -11.2 °F -35.2 °F -22.0 °F 59% 29.73 in 10.0 mi WNW 17.3 mph 27.6 mph N/A   Mostly Cloudy
11:53 AM -9.0 °F -31.7 °F -20.9 °F 56% 29.80 in 10.0 mi West 16.1 mph 23.0 mph N/A   Mostly Cloudy
12:05 PM -9.4 °F -34.7 °F -20.2 °F 59% 29.70 in 10.0 mi West 20.7 mph 27.6 mph N/A   Scattered Clouds
12:53 PM -9.0 °F -33.6 °F -20.9 °F 56% 29.78 in 10.0 mi West 19.6 mph 24.2 mph N/A   Clear
1:53 PM -8.0 °F -32.2 °F -20.9 °F 53% 29.78 in 9.0 mi West 19.6 mph - N/A   Partly Cloudy
2:53 PM -8.0 °F -29.6 °F -22.0 °F 50% 29.78 in 10.0 mi West 15.0 mph - N/A   Clear
3:53 PM -9.0 °F -32.4 °F -22.0 °F 53% 29.78 in 10.0 mi West 17.3 mph 24.2 mph N/A   Clear
4:53 PM -9.9 °F -32.1 °F -22.0 °F 55% 29.78 in 10.0 mi West 15.0 mph 24.2 mph N/A   Overcast
5:14 PM -11.2 °F -31.1 °F -22.0 °F 59% 29.68 in 10.0 mi West 11.5 mph 25.3 mph N/A   Overcast
5:53 PM -11.9 °F -33.8 °F -20.9 °F 64% 29.77 in 10.0 mi West 13.8 mph 20.7 mph N/A   Scattered Clouds
6:53 PM -13.0 °F -36.8 °F -20.9 °F 68% 29.75 in 10.0 mi West 16.1 mph 25.3 mph N/A   Clear
7:53 PM -13.0 °F -36.0 °F -20.0 °F 71% 29.76 in 10.0 mi West 15.0 mph 20.7 mph N/A   Partly Cloudy
8:22 PM -13.0 °F -34.3 °F -20.2 °F 70% 29.66 in 10.0 mi WSW 12.7 mph - N/A   Mostly Cloudy
8:35 PM -13.0 °F -32.4 °F -20.2 °F 70% 29.66 in 10.0 mi WSW 10.4 mph - N/A   Mostly Cloudy
8:53 PM -13.0 °F -30.0 °F -20.0 °F 71% 29.76 in 10.0 mi WSW 8.1 mph - N/A   Mostly Cloudy
9:53 PM -11.2 °F -24.8 °F -18.4 °F 70% 29.65 in 9.0 mi WSW 5.8 mph - N/A   Mostly Cloudy
10:53 PM -11.0 °F -29.9 °F -18.9 °F 68% 29.75 in 9.0 mi West 10.4 mph - N/A   Partly Cloudy
11:53 PM -11.0 °F -26.2 °F -18.0 °F 71% 29.73 in 7.0 mi West 6.9 mph - N/A   Scattered Clouds